Location: ??????
(56.0120°N, 39.1740°E)
Time: 01:28:28
(UTC+00:00)

Cosmos 2151 Rocket - Pass Details

Date: 14 April 2026
Orbit: 611 x 635 km, 82.5° (Epoch: 20 May)

Event Time Altitude Azimuth Distance (km) Brightness Sun altitude
Exits shadow 21:27:46 53° 275° (W) 764 3.9 -24.3°
Maximum altitude 21:27:59 54° 287° (WNW) 759 4.0 -24.3°
Drops below altitude 10° 21:32:20 10° 5° (N) 1,995 7.2 -24.3°
Sets 21:34:36 0° 11° (N) 2,902 8.4 -24.3°
